Погода в Токмове

Россия / Республика Мордовия     54°02′33″N   44°05′28″E
темп.,
°C
ветер,
м/с
пор.,
м/с
влажн.,
%
обл.,
%
осадки,
мм/ч
давл.,
гПа
погр.,
м
24 июня, чт
чт2400:00+21всв22810 0.0 102112
03:00+20ссз01840 0.0 102011
06:00+23св12790 0.0 102183
09:00+27св22640 0.0 1020474
12:00+30ссв12520 0.0 10201353
15:00+31юв12471 0.0 10191993
18:00+30ю116639 0.0 1018315
21:00+24ююз11741 0.1 101811
25 июня, пт
пт2500:00+22з22790 0.1 101822
03:00+21зсз11840 0.1 101811
06:00+23зсз12805 0.0 101893
09:00+28сз11655 0.0 1017425
12:00+30ююз115478 0.0 10171170
15:00+31юз1250100 0.0 10161529
18:00+29юв34640 0.0 101486
21:00+23зсз22791 0.1 101526
26 июня, сб
сб2600:00+21с118483 0.3 101611
03:00+20ссз00845 0.4 101511
06:00+23ююв12815 0.1 101477
09:00+27зюз227034 0.8 1015221
12:00+30зюз235195 0.1 10151700
15:00+31юз124991 0.1 10141830
18:00+29ююз226794 0.0 101376
21:00+25ююз117215 0.0 101311
27 июня, вс
вс2700:00+23ю117596 0.1 101311
03:00+22ююв118015 0.3 101411
06:00+24юв127813 0.0 101470
09:00+28ю336754 0.0 1014508
12:00+30зюз34599 0.2 10141032
15:00+31з23501 0.3 10131890
18:00+31юв11614 0.0 1012106
21:00+23ююв24815 0.0 101353
28 июня, пн
пн2800:00+21ю358731 1.4 101372
03:00+20ю228722 3.2 101317
06:00+22ююв258617 0.3 1013153
09:00+27ююв23675 0.3 1013433
12:00+30ююв235717 0.0 1013978
15:00+31юв34535 0.0 10121572
18:00+30вюв23661 0.0 1011136
21:00+25вюв49780 0.0 1010153